Date,TemperatureHighF,TemperatureAvgF,TemperatureLowF,DewpointHighF,DewpointAvgF,DewpointLowF,HumidityHigh,HumidityAvg,HumidityLow,PressureMaxIn,PressureMinIn,WindSpeedMaxMPH,WindSpeedAvgMPH,GustSpeedMaxMPH,PrecipitationSumIn
2013-3-1,34.2,33.7,32.7,33.4,32.8,31.9,97,97,96,30.08,30.02,5,0,5,0.01
2013-3-3,38.8,32.9,26.2,24.9,20.5,16.6,67,60,52,30.19,30.16,12,1,14,0.12
2013-3-4,45.2,35.4,25.1,30.1,22.6,15.8,72,60,50,30.24,29.96,11,1,12,0.27
2013-3-5,47.9,40.7,29.2,47.4,37.8,27.5,98,90,58,29.96,29.58,27,2,27,0.13
2013-3-6,33.2,31.2,29.3,31.1,29.2,27.6,95,92,89,30.41,29.86,14,2,17,0.03
2013-3-7,36.9,33.9,30.6,32.0,29.8,27.7,93,85,77,30.50,30.39,5,0,7,0.00
2013-3-8,36.6,36.6,36.6,30.7,30.7,30.7,79,79,79,30.46,30.46,0,0,1,0.00
2013-3-12,48.0,41.9,37.9,33.1,30.0,28.4,69,62,56,30.15,30.07,12,2,14,0.00
2013-3-13,39.4,37.6,35.9,32.9,31.8,29.0,87,80,67,30.16,30.13,7,1,10,0.00
2013-3-14,44.5,38.8,35.2,33.2,30.4,24.4,91,74,45,30.36,30.30,10,1,13,0.00
2013-3-15,66.9,48.9,34.4,49.9,39.2,31.2,90,71,48,30.31,29.75,12,2,16,0.00
2013-3-16,70.2,61.2,59.0,54.0,49.8,46.8,74,66,54,29.75,29.61,21,5,22,0.00
2013-3-17,59.0,42.3,36.1,47.3,39.0,35.3,98,90,65,30.05,29.75,12,3,14,0.75
2013-3-18,52.9,43.0,36.2,52.6,42.6,35.7,100,98,98,29.89,29.63,17,4,19,0.26
2013-3-23,55.2,50.2,42.4,34.7,31.0,24.1,58,48,39,30.07,29.80,9,2,10,0.06
2013-3-24,47.0,39.1,34.7,40.4,35.4,29.2,98,88,52,29.80,29.36,19,3,23,0.07
2013-3-25,35.4,32.6,30.5,32.3,30.6,28.7,96,92,83,30.11,29.51,20,4,25,0.06
2013-3-26,40.3,34.9,31.6,32.9,30.8,28.0,97,86,62,30.38,30.10,10,2,12,0.06
2013-3-27,35.1,30.4,26.6,31.0,26.5,23.6,92,85,76,30.45,30.38,3,0,6,0.00
2013-3-29,48.9,45.6,41.6,44.0,42.6,40.0,94,89,82,30.27,30.23,5,0,6,0.03
2013-3-30,59.0,47.8,35.4,47.7,41.7,34.5,98,81,55,30.26,29.91,13,1,14,0.01
2013-3-31,61.1,51.9,47.8,51.3,47.7,44.0,99,87,59,29.91,29.77,12,1,13,0.01